Location: Unspecified
(0.0000°N, 0.0000°E)
Time: 21:10:59
(UTC+01:00)

Daily predictions for brighter satellites

Satellite Brightness Start Highest point End
(mag) Time Altitude Azimuth Time Altitude Azimuth Time Altitude Azimuth
ARIANE 5 R/B 3.7 17:57:58 10° W 18:01:42 80° S 18:26:55 10° E
ARIANE 5 R/B 3.7 17:57:59 10° W 18:01:42 80° S 18:26:55 10° E
ARIANE 5 R/B 3.7 17:57:59 10° W 18:01:43 80° S 18:26:55 10° E
ARIANE 5 R/B 2.7 19:07:49 10° W 19:10:19 68° N 19:19:41 10° E
CZ-4 R/B 1.4 19:06:40 10° S 19:10:40 89° WSW 19:14:33 10° NNW
Cosmos 2082 Rocket 3.5 19:07:05 10° NNE 19:10:50 18° ENE 19:14:34 10° ESE
Cosmos 972 4.4 19:06:41 10° N 19:11:35 75° E 19:16:53 10° SSE
ERS-2 2.7 19:09:09 10° SE 19:12:32 35° ENE 19:15:54 10° N
OAO 2 Rocket 4.2 19:10:11 10° WNW 19:15:08 54° SW 19:20:12 10° SE
SPOT 3 Rocket 4.2 19:14:56 10° SE 19:19:34 33° ENE 19:24:11 10° NNE
BREEZE M DEB (TANK) 3.9 19:18:34 10° NNE 19:21:07 21° ENE 19:26:13 10° ESE
CZ-4 R/B 4.4 19:17:50 10° SSE 19:21:59 73° ENE 19:26:07 10° N
FENGYUN 3A 4.4 19:17:40 10° SE 19:22:24 31° ENE 19:27:06 10° NNE
BREEZE-M DEB 4.4 19:20:20 10° NW 19:23:21 58° SW 19:25:42 10° SSE
ARIANE 5 R/B 2.8 19:21:22 10° WNW 19:24:47 49° N 19:35:54 12° ENE
BREEZE-M DEB (TANK) 4.3 19:23:01 10° SW 19:27:01 67° NW 19:37:16 10° NNE
Cosmos 1674 Rocket 3.5 19:25:28 10° S 19:29:54 76° E 19:34:17 10° N
Ariane H10-3 3.0 19:33:57 10° NW 19:35:44 19° N 19:36:37 16° NNE
Okean 2 Rocket 3.0 19:31:57 10° N 19:36:25 73° E 19:40:53 10° S
Cosmos 1536 4.2 19:36:42 17° ENE 19:37:45 19° E 19:40:33 10° SE
ERBS 2.2 19:37:56 10° NNW 19:41:20 63° ENE 19:44:45 10° SE
Star 37E S/N 40089 3.5 19:39:55 10° WSW 19:41:45 87° NW 19:43:02 25° ENE
Cosmos 1602 3.6 19:37:57 10° N 19:41:48 74° E 19:45:41 10° S
ARIANE 5 R/B 3.9 19:23:35 10° W 19:42:54 64° S 19:45:52 16° ESE
Cosmos 2369 Rocket 3.0 19:37:28 10° SSW 19:42:59 53° WNW 19:48:27 10° N
Atlas Centaur 2 2.6 19:43:21 10° SSW 19:46:15 23° SSE 19:47:48 17° ESE
ASTRO E2 3.9 19:44:50 10° W 19:48:30 34° NNW 19:50:59 17° NNE
Cosmos 1378 Rocket 3.4 19:44:44 10° S 19:49:01 67° E 19:53:19 10° N
OE (NEXTSAT) 4.4 19:45:58 10° NW 19:49:28 80° SW 19:52:59 10° SE
BLOCK DM-SL R/B 0.1 19:46:05 10° W 19:49:30 84° S 19:50:05 42° E
NOAA 12 4.0 19:44:44 10° SSE 19:50:02 68° ENE 19:55:18 10° N
BREEZE M DEB (TANK) 2.8 19:53:04 10° NNW 19:55:05 30° N 19:55:05 30° N
Cosmos 292 Rocket 4.0 19:51:47 10° N 19:56:18 45° ENE 20:00:52 10° SSE
Cosmos 1833 Rocket 2.6 19:57:02 10° N 20:02:37 73° ENE 20:08:14 10° SSE
ALOS 2.4 19:58:11 10° S 20:02:51 74° WSW 20:07:29 10° NNW
Delta 202 4.1 19:55:02 10° WSW 20:03:16 74° NNW 20:06:25 30° ENE
Cosmos 2279 Rocket 4.0 19:59:55 10° S 20:06:01 58° E 20:10:45 17° NNE
Cosmos 1943 Rocket 2.9 20:02:56 10° SSW 20:08:16 51° WNW 20:13:37 10° N
Aurora 2 Rocket 3.5 20:07:10 10° NW 20:11:30 29° NNE 20:11:30 29° NNE
Cosmos 1656 Rocket 3.6 20:12:41 10° S 20:18:19 65° ESE 20:20:09 42° NE
Uosat 12 SS-18 rocket 4.0 20:17:38 10° SSW 20:21:54 77° ESE 20:22:34 63° NE
ATLAS 2AS CENTAUR R/B 3.9 20:20:27 10° SSE 20:25:20 25° ESE 20:25:20 25° ESE
Centaur AC-146 3.8 20:08:02 10° WSW 20:27:30 39° S 20:29:37 28° SE
MOS 1-B Rocket 4.2 20:21:49 10° SSE 20:27:57 60° ENE 20:35:03 10° N
ARIANE 5 DEB (SYLDA) 4.0 20:25:31 10° W 20:28:36 73° N 20:30:02 50° ENE
Okean 1 3.5 20:25:21 10° S 20:29:22 69° W 20:29:50 61° NW
NOSS 2-3 (E) 4.0 20:27:49 10° SSW 20:32:00 53° SSE 20:32:00 53° SSE
Cosmos 1937 Rocket 4.1 20:32:37 10° S 20:36:33 42° SE 20:36:33 42° SE
Cosmos 1975 Rocket 3.8 20:36:49 10° SSW 20:40:59 49° W 20:41:48 43° NW
ARIANE 5 R/B 3.0 20:41:53 10° W 20:43:59 61° W 20:43:59 61° W
ARIANE 2 DEBRIS 4.0 20:42:04 10° WSW 20:45:16 50° S 20:45:40 48° SSE
ATLAS 2AS CENTAUR RB 3.9 20:46:24 10° NW 20:47:53 13° NW 20:47:53 13° NW
IUS-17 SRM-1 4.1 20:50:20 10° WNW 20:53:49 72° SSW 21:10:15 10° ESE
Cosmos 2082 Rocket 4.0 20:49:47 10° NW 20:54:37 30° WSW 20:59:28 10° SSW
GOES 2 Rocket 4.5 20:52:39 10° SW 20:59:54 74° SSE 21:00:48 68° ESE
CZ-3 Stage 3 3.9 21:06:16 10° W 21:10:15 38° SSW 21:24:50 10° SE
Ariane H10-3 3.7 20:25:32 10° W 21:11:14 83° S 21:11:58 75° ESE
Centaur D-1AR AC-40 3.6 21:25:38 10° WNW 21:38:06 51° WNW 21:38:06 51° WNW
Ariane H10 4.5 21:24:13 10° W 21:56:33 59° SSW 21:56:33 59° SSW
